Regional Weather Roundup
Issued by NWS Sioux Falls, SD

Home | Current Version | Previous Version | Graphics & Text | Print | Product List | Glossary Off
Versions: 1 2 3 4 5 6 7 8 9 10 11 12 13 14 15 16 17 18 19 20 21 22 23 24 25 26 27 28 29 30 31 32 33 34 35 36 37 38 39 40 41 42 43 44 45 46 47 48 49 50

000
ASUS43 KFSD 301310
RWRFSD

WEATHER ROUNDUP FOR SE SOUTH DAKOTA/SW MINNESOTA/NW IOWA
NATIONAL WEATHER SERVICE SIOUX FALLS SD
800 AM CDT SUN APR 30 2017

NOTE: "FAIR" INDICATES FEW OR NO CLOUDS BELOW 12,000 FEET WITH NO
SIGNIFICANT WEATHER AND OR OBSTRUCTIONS TO VISIBILITY.


SDZ038>040-050-052>070-301400-
SOUTHEAST SOUTH DAKOTA

CITY           SKY/WX    TMP DP  RH WIND       PRES   REMARKS
BROOKINGS      CLOUDY    40  27  59 N10       30.00F
CHAMBERLAIN    CLOUDY    40  28  62 N8        30.06R
HURON          PTSUNNY   40  26  57 NE9       30.05S
MADISON        FAIR      39  27  60 N13       30.00R
MITCHELL       PTSUNNY   41  28  60 N12       30.03S
SIOUX FALLS    LGT RAIN  43  31  62 E17       29.97S
WINNER         FAIR      35  27  72 NW6       30.04F
YANKTON        CLOUDY    39  34  81 N14       29.95S
$$

MNZ071-072-080-081-089-090-097-098-301400-
SOUTHWEST MINNESOTA

CITY           SKY/WX    TMP DP  RH WIND       PRES   REMARKS
FAIRMONT       LGT RAIN  39  36  89 NE15      29.94F
JACKSON        LGT RAIN  36  34  93 NE15G24   29.93F
LUVERNE        LGT RAIN  36  32  87 NE17G25   29.96S
MARSHALL       CLOUDY    41  28  60 NE14      30.00F
MONTEVIDEO     CLOUDY    41  27  56 E9        30.05S
PIPESTONE      MIX PCPN  41  25  52 E10G16    29.96S
REDWOOD FALLS  CLOUDY    42  26  53 NE8       30.01F
TRACY          CLOUDY    42  31  65 E10       29.99F
WINDOM         RAIN      36  34  93 NE13      29.96F
WORTHINGTON    RAIN      35  33  92 NE18      29.94F WCI  24
$$

IAZ001>003-012>014-020>022-031-032-NEZ013-014-SDZ071-301400-
NORTHWEST IOWA

CITY           SKY/WX    TMP DP  RH WIND       PRES   REMARKS
CHEROKEE       LGT RAIN  38  38 100 NE10G20   29.90R
DENISON        CLOUDY    37  37 100 NE23G32   29.83R
ESTHERVILLE    CLOUDY    38  37  97 NE22      29.91F
ORANGE CITY    RAIN      39  37  93 NE9G16    29.91R
SHELDON        LGT RAIN  37  36  93 NE17G25   29.90S
SIOUX CITY     LGT RAIN  40  38  93 NE20G29   29.87S FOG
SPENCER        CLOUDY    39  37  92 NE18G26   29.91F
STORM LAKE     MIX PCPN  37  36  93 NE25G31   29.88R
$$

ABBREVIATIONS USED IN REMARKS
   TC - TEMPERATURE IN CELSIUS
  WCI - WIND CHILL INDEX
   HX - HEAT INDEX
  VSB - VISIBILITY





USA.gov is the U.S. government's official web portal to all federal, state and local government web resources and services.